Regional Weather Roundup
Issued by NWS

Home | Current Version | Previous Version | Text Only | Print | Product List | Glossary Off
Versions: 1 2 3 4 5 6 7 8 9 10 11 12 13 14 15 16 17 18 19 20 21 22 23 24 25 26 27 28 29 30 31 32 33 34 35 36 37 38 39 40 41 42 43 44 45 46 47 48 49 50

000
ASUS43 KIND 201459
RWRIN

WEATHER ROUNDUP FOR INDIANA
NATIONAL WEATHER SERVICE INDIANAPOLIS IN
1100 AM EDT SAT SEP 20 2014

NOTE: "FAIR" INDICATES FEW OR NO CLOUDS BELOW 12,000 FEET WITH NO
SIGNIFICANT WEATHER AND/OR OBSTRUCTIONS TO VISIBILITY.

* - STATION DOES NOT REPORT WEATHER SUCH AS PRECIPITATION OR FOG.

+ - STATION NOT QUALITY CONTROLLED BY THE NATIONAL WEATHER SERVICE.
    USE DATA WITH CAUTION...ESPECIALLY DEWPOINT AND RELATIVE
    HUMIDITY OBSERVATIONS.

INZ001>003-010>013-019-020-201600-
NORTHWEST INDIANA

CITY           SKY/WX    TMP DP  RH WIND       PRES   REMARKS
GARY /AIRPORT/ CLOUDY    70  59  68 SW12      29.92F
KNOX *+        CLOUDY    67  57  70 SW12G21   29.95F
RENSSELAER +   CLOUDY    70  63  78 SW10      29.98F
VALPARAISO     CLOUDY    70  60  70 S15G23    29.94F

$$

LMZ046-743>745-201600-
SOUTHERN LAKE MICHIGAN

STATION/POSITION TIME  TEMP WIND        PRES
                       AIR  DIR/SP/G
                 (UTC) (F)  (DEG/KT/KT) (MB)
MICHIGAN CITY    1400   66  180/ 17/ 24   N/A

$$

INZ004-005-014>016-021>024-201600-
NORTH CENTRAL INDIANA

CITY           SKY/WX    TMP DP  RH WIND       PRES   REMARKS
GOSHEN         PTSUNNY   70  58  65 SW20G25   29.96F
SOUTH BEND     CLOUDY    69  58  67 SW15      29.94F
WARSAW +       PTSUNNY   68  59  73 SW9       29.98F

$$

INZ006>009-017-018-025>027-201600-
NORTHEAST INDIANA

CITY           SKY/WX    TMP DP  RH WIND       PRES   REMARKS
ANGOLA *+      SUNNY     72  63  73 SW16      29.96F
FORT WAYNE     PTSUNNY   70  59  68 SW16      30.01F

$$

INZ028-029-035-036-043>045-051>053-201600-
WEST CENTRAL INDIANA

CITY           SKY/WX    TMP DP  RH WIND       PRES   REMARKS
GREENCASTLE +  SUNNY     70  61  73 CALM      30.06S
LAFAYETTE      PTSUNNY   69  60  73 SW8       30.01F
TERRE HAUTE    MOSUNNY   72  61  68 SW9       30.06R

$$

INZ030>032-037>040-046>048-054>057-064-065-201600-
CENTRAL INDIANA

CITY           SKY/WX    TMP DP  RH WIND       PRES   REMARKS
FRANKFORT +    PTSUNNY   71  61  70 SW8       30.05S
INDIANAPOLIS   CLOUDY    71  60  68 SW13      30.06R
-EAGLE CREEK   SUNNY     71  59  65 SW7       30.05S
KOKOMO *+      PTSUNNY   70  57  64 SW13      30.03F
MT COMFORT *+  SUNNY     72  55  56 SW8       30.06S
SHELBYVILLE    PTSUNNY   72  61  68 SW9       30.07S

$$

INZ033-034-041-042-049-050-058-059-201600-
EAST CENTRAL INDIANA

CITY           SKY/WX    TMP DP  RH WIND       PRES   REMARKS
MUNCIE         MOSUNNY   71  51  49 SW10      30.05S

$$

INZ060-061-067>069-081>083-085>088-201600-
SOUTHWEST INDIANA

CITY           SKY/WX    TMP DP  RH WIND       PRES   REMARKS
EVANSVILLE     SUNNY     75  65  70 SW14      30.08F

$$

INZ062-063-066-070>080-084-089>092-201600-
SOUTH CENTRAL AND SOUTHEAST INDIANA

CITY           SKY/WX    TMP DP  RH WIND       PRES   REMARKS
BLOOMINGTON    SUNNY     71  62  73 SW9       30.07S

$$



USA.gov is the U.S. government's official web portal to all federal, state and local government web resources and services.